Location: La Comballaz
(46.3780°N, 7.0817°E)
Time: 05:07:32
(UTC+00:00)

MOS 1 Rocket - Pass Details

Date: 09 April 2020
Orbit: 614 x 830 km, 97.4° (Epoch: 01 June)

Event Time Altitude Azimuth Distance (km) Brightness Sun altitude
Rises 19:15:21 0° 18° (NNE) 3,353 6.9 -11.2°
Reaches altitude 10° 19:17:49 10° 25° (NNE) 2,432 6.1 -11.6°
Maximum altitude 19:22:59 44° 97° (E) 1,143 4.0 -12.4°
Drops below altitude 10° 19:28:08 10° 168° (SSE) 2,424 5.7 -13.2°
Sets 19:30:35 0° 175° (S) 3,341 6.5 -13.6°
